Koyo — JD2279 — position and weather

sailwx.info

Track history (hours):
 
Tides and Currents Weather Stations Pressure Air Temp Water Temp Dewpoint Dewpoint Depression Visibility Wind Speed Wind Dir Waves Ship Positions

Koyo

Last reported at 2014-Oct-24 22:33 UTC. Time now 2014-Oct-26 05:17 UTC.
Position N 32°08' E 131°54'.

Length 80 m; draft 3.6 m.

Type: Cargo ship. MMSI: 431301812.

Date/timePositionNaut miles runAvg speedWind from/ knotsBaromVisibWave heightAir tempDewpointWater temp
2014-Oct-24 22:33N 32°08' E 131°54'1212.4
2014-Oct-24 21:33N 32°17' E 132°04'17912.7
2014-Oct-24 07:26N 34°04' E 134°55'1314.3
2014-Oct-24 06:32N 34°17' E 134°58'1414.0
2014-Oct-24 05:33N 34°29' E 135°07'1312.7
2014-Oct-24 04:33N 34°40' E 135°15'0 0.2
2014-Oct-24 03:26N 34°40' E 135°14'0 0.1
2014-Oct-24 02:32N 34°40' E 135°14'0 0.0
2014-Oct-24 01:26N 34°40' E 135°14'0 0.5
2014-Oct-24 00:33N 34°39' E 135°15'2 1.6
2014-Oct-23 23:33N 34°40' E 135°13'0 0.0
2014-Oct-23 22:27N 34°40' E 135°13'0 0.0
2014-Oct-23 21:33N 34°40' E 135°13'0 0.0
2014-Oct-23 20:33N 34°40' E 135°13'3 3.4
2014-Oct-23 19:34N 34°37' E 135°14'1312.8
2014-Oct-23 18:33N 34°37' E 134°59'11912.6
2014-Oct-23 09:06N 34°02' E 132°41'108 4.5
2014-Oct-22 09:06N 34°33' E 134°45'815.1
2014-Oct-22 08:33N 34°36' E 134°55'1313.2
2014-Oct-22 07:33N 34°36' E 135°11'1212.0
2014-Oct-22 06:33N 34°38' E 135°25'0 0.0
2014-Oct-22 05:29N 34°38' E 135°25'1 1.5
2014-Oct-22 04:33N 34°38' E 135°23'7 6.6
2014-Oct-22 03:33N 34°33' E 135°18'7 7.1
2014-Oct-22 02:33N 34°40' E 135°15'0 0.2
2014-Oct-22 01:31N 34°40' E 135°14'2 2.0
2014-Oct-22 00:33N 34°38' E 135°14'1010.5
2014-Oct-21 23:33N 34°37' E 135°02'1210.4
2014-Oct-21 22:24N 34°32' E 134°48'11111.3
2014-Oct-21 12:31N 34°04' E 132°37'1310.8
2014-Oct-21 11:21N 34°09' E 132°23'911.3
2014-Oct-21 10:33N 34°17' E 132°24'7 6.4
2014-Oct-21 09:31N 34°21' E 132°31'0 0.1
2014-Oct-21 08:34N 34°21' E 132°31'9 8.8
2014-Oct-21 07:33N 34°16' E 132°22'1111.4
2014-Oct-21 06:33N 34°05' E 132°17'133 5.5
2014-Oct-20 06:25N 34°36' E 134°54'1011.1
2014-Oct-20 05:33N 34°36' E 135°06'8 7.8
2014-Oct-20 04:33N 34°39' E 135°14'0 0.0
2014-Oct-20 03:30N 34°39' E 135°14'0 0.0
2014-Oct-20 02:30N 34°39' E 135°14'0 0.1
2014-Oct-20 01:33N 34°39' E 135°15'2 2.1
2014-Oct-20 00:28N 34°41' E 135°13'0 0.0
2014-Oct-19 23:28N 34°41' E 135°13'0 0.0
2014-Oct-19 22:28N 34°41' E 135°13'0 0.0
2014-Oct-19 21:28N 34°41' E 135°13'0 0.0
2014-Oct-19 20:28N 34°41' E 135°13'0 0.0
2014-Oct-19 19:28N 34°41' E 135°13'0 0.0
2014-Oct-19 18:28N 34°41' E 135°13'0 0.0
2014-Oct-19 17:28N 34°41' E 135°13'0 0.0
2014-Oct-19 16:22N 34°41' E 135°13'0 0.0
2014-Oct-19 15:28N 34°41' E 135°13'0 0.0
2014-Oct-19 14:28N 34°41' E 135°13'0 0.0
2014-Oct-19 13:28N 34°41' E 135°13'0 0.0
2014-Oct-19 12:28N 34°41' E 135°13'0 0.0
2014-Oct-19 11:28N 34°41' E 135°13'0 0.0
2014-Oct-19 10:28N 34°41' E 135°13'0 0.0
2014-Oct-19 09:28N 34°41' E 135°13'0 0.0
2014-Oct-19 08:28N 34°41' E 135°13'0 0.0
2014-Oct-19 07:28N 34°41' E 135°13'4 4.2
2014-Oct-19 06:33N 34°39' E 135°16'1313.4
2014-Oct-19 05:33N 34°27' E 135°08'1313.2
2014-Oct-19 04:33N 34°16' E 134°59'20 0.8
2014-Oct-18 03:31N 34°35' E 134°51'1111.3
2014-Oct-18 02:33N 34°36' E 135°04'9 8.9
2014-Oct-18 01:33N 34°39' E 135°15'0 0.0
2014-Oct-18 00:32N 34°39' E 135°15'0 0.0
2014-Oct-17 23:32N 34°39' E 135°15'1 0.7
2014-Oct-17 22:29N 34°39' E 135°15'0 0.0
2014-Oct-17 21:29N 34°39' E 135°15'6 6.5
2014-Oct-17 20:33N 34°36' E 135°08'9 8.9
2014-Oct-17 19:34N 34°36' E 134°58'1110.2
2014-Oct-17 18:32N 34°32' E 134°46'11210.1
2014-Oct-17 07:32N 34°04' E 132°35'11 9.9
2014-Oct-17 06:24N 34°08' E 132°23'810.1
2014-Oct-17 05:34N 34°17' E 132°23'7 7.2
2014-Oct-17 04:32N 34°21' E 132°31'0 0.0
2014-Oct-17 03:13N 34°21' E 132°31'4 5.4
2014-Oct-17 02:34N 34°21' E 132°26'0 0.0
2014-Oct-17 01:34N 34°21' E 132°26'14 6.8
2014-Oct-16 23:31N 34°11' E 132°14'0 0.0
2014-Oct-16 22:33N 34°11' E 132°14'4 0.6
2014-Oct-16 16:16N 34°10' E 132°19'810.5
2014-Oct-16 15:32N 34°05' E 132°26'12410.3
2014-Oct-16 03:26N 34°35' E 134°52'1011.0
2014-Oct-16 02:33N 34°36' E 135°04'10 9.7
2014-Oct-16 01:33N 34°39' E 135°15'0 0.2
2014-Oct-16 00:33N 34°39' E 135°15'8 8.0
2014-Oct-15 23:34N 34°32' E 135°12'1713.2
2014-Oct-15 22:17N 34°18' E 135°00'17612.6
2014-Oct-15 08:19N 32°32' E 132°11'1013.3
2014-Oct-15 07:33N 32°30' E 131°60'  
Track history (hours):
 
Tides and Currents Weather Stations Pressure Air Temp Water Temp Dewpoint Dewpoint Depression Visibility Wind Speed Wind Dir Waves Ship Positions

Koyo

Last reported at 2014-Oct-24 22:33 UTC. Time now 2014-Oct-26 05:17 UTC.
Position N 32°08' E 131°54'.

Length 80 m; draft 3.6 m.

Type: Cargo ship. MMSI: 431301812.

Date/timePositionNaut miles runAvg speedWind from/ knotsBaromVisibWave heightAir tempDewpointWater temp
2014-Oct-24 22:33N 32°08' E 131°54'1212.4
2014-Oct-24 21:33N 32°17' E 132°04'17912.7
2014-Oct-24 07:26N 34°04' E 134°55'1314.3
2014-Oct-24 06:32N 34°17' E 134°58'1414.0
2014-Oct-24 05:33N 34°29' E 135°07'1312.7
2014-Oct-24 04:33N 34°40' E 135°15'0 0.2
2014-Oct-24 03:26N 34°40' E 135°14'0 0.1
2014-Oct-24 02:32N 34°40' E 135°14'0 0.0
2014-Oct-24 01:26N 34°40' E 135°14'0 0.5
2014-Oct-24 00:33N 34°39' E 135°15'2 1.6
2014-Oct-23 23:33N 34°40' E 135°13'0 0.0
2014-Oct-23 22:27N 34°40' E 135°13'0 0.0
2014-Oct-23 21:33N 34°40' E 135°13'0 0.0
2014-Oct-23 20:33N 34°40' E 135°13'3 3.4
2014-Oct-23 19:34N 34°37' E 135°14'1312.8
2014-Oct-23 18:33N 34°37' E 134°59'11912.6
2014-Oct-23 09:06N 34°02' E 132°41'108 4.5
2014-Oct-22 09:06N 34°33' E 134°45'815.1
2014-Oct-22 08:33N 34°36' E 134°55'1313.2
2014-Oct-22 07:33N 34°36' E 135°11'1212.0
2014-Oct-22 06:33N 34°38' E 135°25'0 0.0
2014-Oct-22 05:29N 34°38' E 135°25'1 1.5
2014-Oct-22 04:33N 34°38' E 135°23'7 6.6
2014-Oct-22 03:33N 34°33' E 135°18'7 7.1
2014-Oct-22 02:33N 34°40' E 135°15'0 0.2
2014-Oct-22 01:31N 34°40' E 135°14'2 2.0
2014-Oct-22 00:33N 34°38' E 135°14'1010.5
2014-Oct-21 23:33N 34°37' E 135°02'1210.4
2014-Oct-21 22:24N 34°32' E 134°48'11111.3
2014-Oct-21 12:31N 34°04' E 132°37'1310.8
2014-Oct-21 11:21N 34°09' E 132°23'911.3
2014-Oct-21 10:33N 34°17' E 132°24'7 6.4
2014-Oct-21 09:31N 34°21' E 132°31'0 0.1
2014-Oct-21 08:34N 34°21' E 132°31'9 8.8
2014-Oct-21 07:33N 34°16' E 132°22'1111.4
2014-Oct-21 06:33N 34°05' E 132°17'133 5.5
2014-Oct-20 06:25N 34°36' E 134°54'1011.1
2014-Oct-20 05:33N 34°36' E 135°06'8 7.8
2014-Oct-20 04:33N 34°39' E 135°14'0 0.0
2014-Oct-20 03:30N 34°39' E 135°14'0 0.0
2014-Oct-20 02:30N 34°39' E 135°14'0 0.1
2014-Oct-20 01:33N 34°39' E 135°15'2 2.1
2014-Oct-20 00:28N 34°41' E 135°13'0 0.0
2014-Oct-19 23:28N 34°41' E 135°13'0 0.0
2014-Oct-19 22:28N 34°41' E 135°13'0 0.0
2014-Oct-19 21:28N 34°41' E 135°13'0 0.0
2014-Oct-19 20:28N 34°41' E 135°13'0 0.0
2014-Oct-19 19:28N 34°41' E 135°13'0 0.0
2014-Oct-19 18:28N 34°41' E 135°13'0 0.0
2014-Oct-19 17:28N 34°41' E 135°13'0 0.0
2014-Oct-19 16:22N 34°41' E 135°13'0 0.0
2014-Oct-19 15:28N 34°41' E 135°13'0 0.0
2014-Oct-19 14:28N 34°41' E 135°13'0 0.0
2014-Oct-19 13:28N 34°41' E 135°13'0 0.0
2014-Oct-19 12:28N 34°41' E 135°13'0 0.0
2014-Oct-19 11:28N 34°41' E 135°13'0 0.0
2014-Oct-19 10:28N 34°41' E 135°13'0 0.0
2014-Oct-19 09:28N 34°41' E 135°13'0 0.0
2014-Oct-19 08:28N 34°41' E 135°13'0 0.0
2014-Oct-19 07:28N 34°41' E 135°13'4 4.2
2014-Oct-19 06:33N 34°39' E 135°16'1313.4
2014-Oct-19 05:33N 34°27' E 135°08'1313.2
2014-Oct-19 04:33N 34°16' E 134°59'20 0.8
2014-Oct-18 03:31N 34°35' E 134°51'1111.3
2014-Oct-18 02:33N 34°36' E 135°04'9 8.9
2014-Oct-18 01:33N 34°39' E 135°15'0 0.0
2014-Oct-18 00:32N 34°39' E 135°15'0 0.0
2014-Oct-17 23:32N 34°39' E 135°15'1 0.7
2014-Oct-17 22:29N 34°39' E 135°15'0 0.0
2014-Oct-17 21:29N 34°39' E 135°15'6 6.5
2014-Oct-17 20:33N 34°36' E 135°08'9 8.9
2014-Oct-17 19:34N 34°36' E 134°58'1110.2
2014-Oct-17 18:32N 34°32' E 134°46'11210.1
2014-Oct-17 07:32N 34°04' E 132°35'11 9.9
2014-Oct-17 06:24N 34°08' E 132°23'810.1
2014-Oct-17 05:34N 34°17' E 132°23'7 7.2
2014-Oct-17 04:32N 34°21' E 132°31'0 0.0
2014-Oct-17 03:13N 34°21' E 132°31'4 5.4
2014-Oct-17 02:34N 34°21' E 132°26'0 0.0
2014-Oct-17 01:34N 34°21' E 132°26'14 6.8
2014-Oct-16 23:31N 34°11' E 132°14'0 0.0
2014-Oct-16 22:33N 34°11' E 132°14'4 0.6
2014-Oct-16 16:16N 34°10' E 132°19'810.5
2014-Oct-16 15:32N 34°05' E 132°26'12410.3
2014-Oct-16 03:26N 34°35' E 134°52'1011.0
2014-Oct-16 02:33N 34°36' E 135°04'10 9.7
2014-Oct-16 01:33N 34°39' E 135°15'0 0.2
2014-Oct-16 00:33N 34°39' E 135°15'8 8.0
2014-Oct-15 23:34N 34°32' E 135°12'1713.2
2014-Oct-15 22:17N 34°18' E 135°00'17612.6
2014-Oct-15 08:19N 32°32' E 132°11'1013.3
2014-Oct-15 07:33N 32°30' E 131°60'  

Dump ship's entire track history